Wind_Speed
18 18 18 17 17 17 17 17 16 16 16 15 15 14 13 12 11 9 9 8 7 5 3 3 3 3 5 6 8 10 12 14 12 6 6 6 4 5 3 3 4 4 6 7 8 8 5 5 4 4 4 3 2 0 0 0 2 4 3 3 1 3 3 4 5 5 3 5 2 3 3 6 2 2 1 5 8 4 4 5 3 3 4 5 6 10 15 15
18 19 19 18 17 17 17 17 17 16 16 16 14 13 13 12 10 9 8 8 6 5 3 2 3 4 5 6 8 11 13 14 10 8 8 4 2 5 6 5 3 2 4 5 6 8 7 3 3 5 5 2 1 1 1 0 2 3 3 2 3 5 4 5 6 5 3 5 4 2 1 5 4 2 2 3 2 2 5 4 5 4 3 5 7 11 13 14
19 19 19 19 18 18 17 18 18 17 16 16 14 13 12 11 9 8 7 7 6 4 3 2 3 4 5 7 9 11 12 9 5 5 2 4 7 7 7 6 4 3 4 3 5 8 9 6 7 7 4 1 1 1 1 1 1 2 3 2 5 6 5 5 6 7 5 5 5 4 1 4 5 3 2 5 4 0 3 2 1 1 4 3 4 7 11 12
19 20 19 19 18 17 18 18 18 17 16 15 14 12 11 10 8 7 7 6 6 4 3 2 3 4 5 7 9 10 8 4 1 2 4 4 8 9 8 7 4 3 4 2 5 9 9 8 7 5 4 1 3 2 1 2 1 1 3 4 6 3 4 7 7 9 6 4 3 1 2 3 5 2 3 9 7 1 5 7 8 9 10 8 6 5 9 9
19 19 19 18 18 17 17 18 18 17 17 15 14 12 10 9 7 6 7 7 5 4 3 3 3 4 5 7 10 9 5 4 1 2 4 3 6 9 9 8 4 4 5 4 7 10 7 5 5 5 4 1 2 3 1 3 3 1 2 6 6 4 3 7 5 7 4 2 2 2 1 4 3 2 7 11 9 5 6 8 8 7 10 10 7 6 7 6
19 18 18 17 17 17 17 18 18 17 16 15 13 11 9 8 6 6 6 6 5 3 3 3 2 3 5 8 8 6 2 1 3 3 4 2 4 11 11 9 5 5 7 6 8 9 4 4 6 4 3 2 1 1 4 3 2 2 4 3 5 5 6 6 2 4 2 2 3 2 1 3 5 3 6 5 4 6 4 5 4 3 6 7 6 7 7 7
19 18 17 17 17 17 18 18 18 17 16 14 12 10 8 8 6 6 6 6 4 2 2 2 1 2 5 7 5 3 2 2 4 5 6 3 3 13 13 8 7 7 8 6 5 5 3 5 4 3 4 2 1 3 4 1 2 2 4 4 5 6 8 7 5 6 5 6 6 4 2 3 6 5 4 3 4 6 1 6 6 5 7 7 6 6 7 8
19 18 18 18 18 18 18 18 18 17 15 13 11 9 8 7 6 5 5 5 4 2 2 1 0 2 5 5 2 3 1 3 5 7 5 3 3 14 16 9 9 9 9 7 4 5 4 5 3 3 3 0 3 3 3 1 1 3 5 5 4 5 7 7 6 8 9 8 4 3 2 6 8 5 5 4 6 4 2 7 6 6 7 6 5 6 8 8
19 18 18 18 18 18 19 19 19 17 15 12 10 8 8 7 6 5 5 5 3 2 2 1 1 1 5 3 2 3 1 3 7 7 2 3 6 14 15 10 11 9 9 8 6 5 3 2 2 3 3 2 4 3 3 2 2 5 6 4 4 6 7 6 7 9 8 4 1 3 2 4 6 2 2 5 5 3 3 7 6 6 6 5 4 5 7 6
19 19 18 18 18 19 20 20 19 17 15 12 9 8 8 7 5 4 4 4 3 2 1 1 2 1 4 3 4 4 2 6 10 6 4 5 10 15 13 11 12 10 8 7 6 6 4 4 3 3 4 2 4 3 2 4 3 5 5 5 7 8 8 4 7 8 4 2 5 6 3 4 3 1 2 6 4 3 4 6 4 5 5 4 4 4 5 5
19 19 19 19 19 20 20 20 19 17 14 11 9 8 8 7 5 4 4 4 3 2 2 3 2 1 3 3 4 2 4 9 9 6 5 6 9 11 11 11 12 11 9 5 9 11 6 5 5 4 1 1 4 2 2 4 2 3 2 5 7 7 6 4 6 6 2 3 6 8 5 2 1 1 5 6 6 5 7 6 4 5 4 3 4 3 4 5
20 20 20 20 20 20 21 20 18 15 13 10 9 8 8 6 4 4 3 4 3 1 3 3 1 2 2 3 3 1 8 10 7 6 5 7 6 6 8 8 8 10 11 6 8 12 5 3 5 3 2 2 2 1 2 3 1 1 2 3 8 7 5 5 4 3 1 2 5 10 5 1 3 5 6 5 7 5 6 6 4 5 3 3 4 4 4 5
21 21 20 20 20 21 20 19 17 14 12 10 9 8 7 5 4 4 3 4 3 1 3 2 1 1 3 2 3 3 11 10 5 4 4 5 5 5 6 6 5 6 10 9 6 5 4 4 5 3 3 2 1 2 1 2 1 3 1 1 5 7 5 5 1 2 3 2 5 8 1 4 7 9 6 5 9 8 7 6 5 5 4 4 4 4 4 6
22 21 21 20 21 21 20 18 16 14 12 10 9 7 5 3 3 3 3 3 2 1 2 1 1 1 2 2 3 7 11 7 3 2 2 3 4 4 5 6 5 6 9 12 9 3 2 4 5 2 2 3 2 3 2 5 3 3 2 1 3 2 4 6 2 3 3 2 4 7 3 6 8 10 6 7 10 11 10 8 6 5 5 5 5 4 4 5
22 22 21 21 21 20 20 18 15 13 12 10 8 5 3 3 2 2 2 2 1 2 2 1 1 1 2 2 3 7 8 5 3 3 1 2 3 4 6 8 8 9 11 12 10 6 3 2 3 0 2 1 4 3 3 4 4 3 1 3 3 1 4 9 4 5 4 2 3 7 3 5 7 8 7 9 9 11 11 9 8 7 7 6 5 5 5 5
23 22 21 20 20 20 19 18 15 13 12 10 7 4 3 2 1 2 1 1 2 3 2 2 2 2 2 2 4 5 5 4 5 5 2 3 3 2 2 5 5 5 9 11 9 6 4 2 2 1 0 2 5 4 3 4 4 4 1 3 3 0 3 5 2 3 3 0 1 3 3 3 5 7 7 8 9 10 9 9 9 7 7 6 5 4 5 6
23 21 20 20 20 19 18 17 14 13 12 10 7 4 3 1 1 2 1 3 3 2 2 1 0 2 1 1 3 4 4 6 8 6 4 4 5 3 2 0 0 3 4 6 3 2 1 2 1 1 2 3 3 4 3 3 3 4 2 0 3 2 2 3 4 3 1 3 2 1 3 5 6 6 9 10 11 10 9 10 9 8 7 6 6 5 6 6
23 21 20 20 19 18 18 15 13 14 13 11 10 9 6 3 3 4 3 3 2 1 2 1 1 3 2 3 3 5 8 8 7 5 4 3 4 4 2 1 2 6 5 2 2 2 1 2 2 2 3 4 3 5 2 4 3 3 1 1 3 3 2 3 5 3 3 1 2 2 4 8 7 5 10 11 12 12 11 10 9 8 8 8 7 7 7 6
22 20 19 18 18 18 16 13 13 14 13 11 10 10 9 5 3 4 2 2 2 1 1 2 2 3 3 6 5 8 10 7 4 4 3 2 1 1 1 1 2 5 5 3 4 3 2 3 4 2 4 4 2 4 7 7 5 5 4 2 2 3 4 5 6 5 2 3 4 4 6 7 6 7 9 10 9 9 9 7 7 7 7 7 7 7 7 7
21 19 18 17 17 16 14 12 11 13 14 12 7 6 7 5 4 3 3 1 1 1 1 2 1 1 3 5 6 10 8 3 1 3 4 2 2 2 2 3 5 5 3 0 2 3 3 4 3 4 6 8 8 7 7 5 5 4 3 2 3 2 5 7 7 6 3 0 6 5 6 6 6 10 11 9 8 8 9 8 8 8 8 8 9 9 8 8
19 18 16 15 16 15 12 10 10 13 15 15 10 5 3 3 3 3 4 4 4 2 2 5 2 3 6 6 7 6 3 2 3 2 2 3 3 2 2 3 5 5 2 1 1 3 5 3 5 7 8 9 8 6 5 4 4 3 3 2 3 3 6 8 6 6 2 3 5 1 2 5 6 10 9 8 10 12 13 13 12 12 10 8 9 10 8 8
18 16 14 14 14 13 10 9 11 13 15 17 13 6 2 2 2 3 1 2 6 3 2 5 2 4 7 5 4 1 3 4 4 3 1 4 3 0 2 4 5 2 4 2 3 5 5 2 8 9 7 7 4 3 6 4 4 3 2 1 3 3 4 7 6 5 1 3 4 3 2 5 6 8 8 12 15 14 13 13 12 12 12 11 11 10 9 8
16 14 13 12 12 10 7 8 10 11 14 16 12 6 3 6 6 2 3 2 5 4 3 4 2 4 5 3 2 3 4 3 2 4 0 3 2 1 2 4 2 2 4 4 3 3 3 4 8 7 4 2 3 2 5 3 1 2 2 1 4 4 1 4 5 5 3 1 3 3 1 5 4 3 5 11 11 6 7 9 6 7 10 10 10 8 8 9
14 13 11 10 11 7 5 6 7 8 9 10 10 9 9 9 5 1 2 2 3 5 3 2 0 2 4 4 4 3 3 0 1 4 1 4 2 1 2 1 2 3 4 1 5 3 2 7 7 6 5 5 5 4 4 3 2 3 4 4 4 4 3 5 5 6 4 2 3 4 4 5 3 2 6 6 3 5 4 7 7 7 7 6 5 6 7 8
12 11 10 9 9 5 2 4 6 7 5 4 7 10 13 10 3 3 2 3 3 6 5 4 2 3 5 6 6 2 2 1 2 3 2 3 3 1 1 1 2 2 5 2 4 2 3 5 3 6 8 8 7 6 4 3 3 5 3 6 7 5 4 4 5 5 5 4 4 4 4 5 3 2 6 2 4 8 4 6 11 8 5 5 7 7 7 6
11 9 8 9 8 4 1 1 5 9 4 2 5 11 14 10 1 3 3 4 3 5 6 5 3 6 8 6 5 2 4 2 4 3 5 5 1 2 2 2 2 2 4 2 1 1 3 4 5 6 6 9 8 6 4 2 4 3 3 3 4 3 2 3 2 2 2 3 4 3 3 4 4 3 5 3 7 11 5 6 10 7 6 8 7 7 7 7
9 8 8 8 7 5 2 0 6 7 1 2 8 13 16 9 0 2 4 5 3 3 4 4 3 5 7 5 4 4 3 4 5 5 8 9 5 2 3 3 2 3 2 2 3 1 3 6 8 7 7 8 7 5 5 2 4 2 4 1 2 2 3 3 1 2 2 3 4 4 4 1 3 4 5 1 4 6 6 8 8 6 9 9 7 7 7 8
8 7 6 6 6 6 3 1 6 3 0 6 10 15 15 5 1 2 5 4 3 2 1 4 4 5 7 6 6 4 1 3 3 3 6 10 7 2 4 2 1 2 2 5 2 4 2 5 6 6 7 6 3 3 6 3 2 4 6 1 2 2 3 2 2 1 1 1 4 5 2 1 4 5 4 2 4 3 8 10 9 9 10 10 9 9 8 8
8 6 6 5 6 5 3 5 6 3 4 8 12 17 12 1 2 4 6 3 2 2 1 2 5 6 6 6 7 4 3 3 3 4 6 10 10 4 4 0 3 2 3 6 3 4 1 1 1 4 5 4 3 4 3 4 1 6 5 2 1 2 2 3 3 2 2 2 4 6 1 1 5 4 3 3 3 3 7 8 9 10 10 11 11 10 8 7
8 6 5 5 6 6 7 8 6 4 7 10 14 16 6 3 4 6 4 0 1 2 1 2 4 4 6 7 6 6 5 4 3 4 5 5 9 7 3 1 5 5 4 5 3 3 4 3 0 5 3 3 3 4 1 3 2 4 4 5 4 5 4 3 2 3 2 2 6 6 2 3 2 4 0 1 0 3 5 5 6 7 9 12 11 10 10 8
8 5 5 6 7 7 7 6 5 7 11 13 16 11 3 4 4 6 2 2 1 3 3 4 4 3 6 6 4 6 5 4 5 5 5 4 8 9 5 4 5 4 5 6 4 6 6 5 3 2 3 3 2 3 1 1 3 3 3 3 4 4 3 3 4 2 1 4 5 4 1 4 2 3 3 3 4 4 3 5 7 7 8 10 11 10 10 9
8 6 5 6 8 8 7 6 9 13 16 16 12 5 5 5 4 2 1 2 2 3 2 2 4 4 4 4 5 6 4 4 5 4 3 3 6 6 5 4 3 4 5 4 4 6 3 3 4 4 4 7 4 4 4 3 5 5 3 4 5 3 3 2 2 0 2 4 4 3 3 2 3 2 6 7 7 8 6 6 9 10 9 8 9 8 7 7
7 6 6 7 8 10 9 11 13 14 15 11 4 5 6 5 1 2 3 2 0 2 1 1 3 4 4 4 6 6 3 3 5 4 3 3 4 4 4 4 3 3 2 2 2 5 3 2 6 6 5 6 5 4 5 4 5 5 2 3 3 2 2 2 3 1 1 3 3 4 3 2 2 2 7 8 7 7 7 7 7 9 10 9 7 5 6 6
7 7 6 7 7 8 9 11 11 12 10 3 5 6 6 5 1 2 2 2 2 2 2 1 2 5 6 4 3 4 3 3 5 5 4 4 5 4 5 6 7 3 2 2 2 2 3 3 6 5 3 5 4 3 1 2 2 2 0 3 4 3 3 1 2 1 2 3 4 4 2 1 1 1 5 6 6 6 9 9 9 10 10 8 5 2 3 5
7 6 5 5 5 6 8 9 11 12 6 5 7 6 5 2 3 0 0 4 2 2 3 3 4 5 5 3 3 3 2 2 4 5 4 4 4 3 4 4 6 4 3 3 1 1 2 2 5 3 3 3 4 3 2 1 1 2 1 4 2 3 4 2 1 2 1 2 3 2 1 1 2 1 5 8 9 12 13 13 14 15 14 11 8 6 3 2
5 3 3 4 5 8 10 9 11 10 3 7 7 5 3 3 3 2 2 2 0 1 2 5 6 5 4 4 4 6 4 2 4 5 3 3 3 4 4 3 4 5 3 2 1 2 2 3 5 5 5 5 4 3 3 3 1 1 2 1 1 1 4 3 0 0 1 1 2 2 1 2 1 1 7 12 12 14 14 13 14 13 14 13 10 9 7 5
2 2 2 5 7 9 10 10 11 8 6 8 6 3 1 2 3 3 2 0 1 2 4 3 3 3 2 3 3 7 6 4 4 4 2 2 2 4 5 4 4 4 1 1 1 1 1 3 5 4 5 7 4 2 4 4 2 2 2 1 1 3 3 2 1 1 1 1 3 2 2 1 2 2 7 12 11 12 12 11 10 11 12 12 10 10 10 8
2 2 2 5 7 8 9 10 10 7 7 7 5 3 1 1 1 2 1 1 1 4 5 2 1 1 1 0 2 5 4 3 4 3 2 3 1 1 3 4 4 6 5 1 2 1 1 2 5 2 3 7 5 4 4 7 5 4 0 1 2 2 1 1 1 1 0 1 2 3 1 0 1 2 6 10 9 11 11 10 9 10 10 9 9 10 10 9
3 2 1 6 10 9 8 7 7 7 7 5 4 1 1 1 1 1 1 2 3 4 4 2 1 2 2 2 1 3 3 2 2 2 2 2 1 2 3 2 4 7 7 3 3 1 2 2 4 4 4 5 5 5 3 6 6 3 3 3 2 2 3 1 1 2 1 1 1 3 2 0 1 2 4 7 8 9 9 9 9 8 6 5 6 7 8 8
4 2 1 9 13 7 4 6 8 7 5 3 3 1 1 1 1 2 2 2 2 2 2 2 1 2 1 1 0 2 2 1 1 2 1 1 0 1 4 2 2 5 5 4 4 0 2 3 3 6 6 4 2 2 1 2 5 4 4 5 4 3 1 1 1 1 1 1 1 0 1 2 2 2 4 5 7 6 7 7 8 8 7 5 4 5 6 7
4 3 2 12 12 2 5 9 6 3 3 2 2 1 1 1 0 4 4 3 3 2 2 4 3 3 2 1 1 1 1 2 2 2 1 1 1 1 2 2 2 4 3 5 3 1 1 1 1 4 5 3 1 2 2 1 2 2 2 2 2 2 2 2 2 1 1 0 1 1 1 3 2 2 3 4 6 6 6 6 7 9 9 7 5 4 4 4
5 3 3 12 8 5 6 6 2 2 3 2 1 1 1 2 2 2 4 4 4 3 3 4 3 2 2 1 0 0 1 2 2 2 1 1 2 3 2 3 5 2 2 2 2 1 1 3 1 2 3 2 3 2 3 4 1 2 2 2 1 1 1 2 1 2 1 1 1 1 0 3 3 2 3 4 6 7 7 7 8 9 9 8 7 6 5 4
3 2 3 12 5 5 7 5 2 4 2 2 0 1 1 2 2 1 3 4 3 2 3 3 1 2 1 1 1 1 2 1 1 2 0 2 2 5 4 3 7 3 3 2 2 1 1 2 2 3 4 3 1 1 3 4 2 3 2 1 1 0 1 2 2 1 1 1 1 1 1 2 3 3 4 5 7 8 8 9 10 9 8 8 7 7 7 6
1 3 3 12 6 3 4 3 1 2 2 2 3 4 4 2 2 2 3 3 2 2 3 2 0 1 1 1 2 1 1 2 1 1 0 1 3 5 4 3 5 2 1 0 1 1 1 1 2 2 4 4 3 3 4 4 3 2 2 3 4 2 2 2 0 1 1 1 1 1 1 3 3 3 5 7 9 10 10 10 9 9 9 9 8 7 7 7
2 1 3 9 10 6 4 3 5 4 0 2 4 4 4 3 2 2 3 3 2 2 3 0 0 1 2 2 3 3 2 2 1 1 1 1 3 4 4 4 3 1 2 0 2 2 1 1 3 3 2 2 2 3 3 3 3 2 2 5 6 5 2 1 0 1 0 1 1 1 1 4 6 8 10 11 11 11 11 11 10 9 10 10 9 9 8 8
2 1 2 6 8 7 2 1 4 5 3 3 3 2 2 2 1 2 4 3 2 3 3 1 1 2 3 3 3 3 3 2 2 1 0 2 3 3 4 5 3 2 1 4 5 3 3 2 2 4 3 3 3 3 2 1 1 2 5 7 7 6 4 2 0 1 2 2 1 1 3 6 8 10 11 11 11 11 10 10 10 9 10 10 10 9 8 7
2 1 1 2 3 4 3 3 4 3 3 4 2 0 1 1 2 3 3 2 1 2 3 2 2 2 2 2 3 2 3 3 3 2 1 3 3 3 5 4 3 4 2 4 4 3 4 2 1 3 3 4 3 3 2 2 2 1 4 7 7 6 5 4 2 3 3 2 1 3 6 7 7 8 10 10 10 10 9 9 9 8 8 9 9 10 10 9
2 2 2 1 0 1 2 2 3 4 4 3 2 1 1 2 2 1 1 2 2 2 2 2 4 3 1 2 3 1 3 4 4 2 1 3 2 4 6 3 3 6 4 3 4 3 5 1 1 1 3 4 3 3 2 3 3 1 3 5 6 6 6 5 4 5 4 2 3 6 7 6 5 6 8 9 9 9 9 8 7 7 7 8 9 10 11 11
2 2 0 2 1 3 2 1 2 5 4 3 2 2 2 3 2 1 1 2 4 3 3 2 2 3 1 2 4 2 0 1 2 3 1 1 2 2 3 2 2 4 4 4 3 2 4 1 1 1 3 4 4 3 1 5 4 2 3 5 5 6 5 3 3 5 4 2 4 6 6 5 4 4 7 9 8 8 8 7 7 7 8 9 9 9 9 10
2 1 1 2 3 1 1 2 3 4 3 3 2 1 2 4 3 1 0 3 1 3 2 3 3 2 1 2 4 1 3 6 3 3 3 1 2 0 0 2 2 4 5 4 1 1 2 1 0 2 2 3 5 5 2 5 5 5 5 6 6 5 4 3 2 4 4 3 4 6 5 5 4 4 7 9 8 8 9 9 9 8 8 9 9 9 9 9
1 1 1 4 2 3 3 2 3 4 2 1 2 2 1 2 4 2 1 1 3 2 1 4 4 1 3 3 1 3 6 7 6 7 6 3 3 3 1 2 2 2 5 3 1 2 3 1 1 4 3 2 5 5 1 1 3 6 6 6 6 4 4 3 1 1 1 2 5 5 4 4 6 6 8 8 8 9 10 10 9 7 8 9 9 9 9 9
2 0 1 4 2 2 1 2 3 3 2 2 2 2 1 3 4 4 3 1 1 3 5 6 6 2 2 3 4 6 7 7 6 6 5 4 4 3 1 0 2 0 2 1 1 2 2 2 1 3 2 2 4 4 2 2 4 3 2 1 1 2 4 4 2 1 1 1 1 3 3 5 6 7 7 9 10 10 9 9 8 7 8 8 8 9 10 10
Wind_Direction
348 347 345 345 345 345 344 343 342 340 341 340 339 337 337 338 335 336 332 331 331 327 337 316 307 307 298 301 304 312 318 318 317 295 253 271 265 218 185 143 147 136 134 133 136 133 98 61 66 76 78 62 26 214 159 95 89 64 81 101 186 206 204 196 202 203 214 276 329 45 54 98 89 355 1 32 38 38 56 31 358 4 16 57 90 118 123 126
347 347 345 344 344 345 343 342 342 340 341 339 340 336 334 337 336 340 334 331 330 330 344 312 304 297 293 304 310 318 322 321 312 281 258 254 139 168 178 167 157 162 162 148 142 126 101 84 109 90 70 54 344 354 98 265 116 100 115 126 218 207 219 207 210 236 233 276 316 18 102 122 154 171 73 83 59 9 75 17 349 20 15 60 98 120 124 124
348 347 346 345 343 344 342 342 343 340 341 340 339 336 334 337 337 337 333 332 329 331 329 298 293 287 298 307 317 326 322 326 313 294 297 175 176 168 170 188 204 204 176 166 172 139 116 140 145 106 63 57 337 10 83 337 172 164 130 150 242 217 237 242 228 243 227 266 318 346 32 137 189 201 83 123 124 44 143 160 92 218 233 159 134 131 128 124
348 347 347 345 342 344 341 342 343 341 342 341 339 338 335 338 339 332 334 335 328 325 305 283 280 285 306 313 325 330 325 355 344 330 60 137 188 177 175 192 192 186 174 124 164 151 121 127 129 100 79 73 316 11 122 276 205 173 133 181 241 202 240 253 227 246 245 249 270 35 51 163 209 237 128 136 121 286 237 208 187 191 198 179 186 155 129 125
347 346 346 345 342 343 342 342 343 342 343 341 339 338 337 342 341 333 335 335 326 319 293 271 272 292 312 321 330 326 344 53 226 282 49 97 186 190 179 174 159 168 168 112 144 152 128 110 79 62 74 74 347 28 228 244 131 164 218 201 220 155 240 264 222 245 244 193 208 111 135 179 162 152 161 147 144 210 229 215 210 192 184 175 174 154 131 135
345 343 344 344 343 344 343 343 345 344 343 341 340 341 342 345 345 337 334 334 328 311 283 263 277 306 315 323 329 325 37 83 261 308 346 33 176 189 171 162 162 166 165 133 140 149 119 74 59 64 69 51 88 155 242 256 105 209 269 241 231 193 231 270 244 251 231 185 219 154 201 146 109 155 192 163 174 240 241 168 176 158 160 149 136 144 153 163
345 344 344 345 345 345 344 345 346 344 343 342 343 344 344 348 349 339 334 334 325 303 266 250 289 313 321 325 324 359 74 255 285 338 334 4 155 177 164 158 168 170 170 153 133 139 108 76 77 115 92 51 165 220 242 297 62 193 272 286 257 215 224 260 272 277 276 255 236 137 111 162 149 165 197 258 276 266 266 114 122 117 122 119 121 148 169 178
346 345 346 347 346 346 345 345 345 343 342 342 344 346 343 347 347 335 334 334 321 299 247 218 300 307 330 333 325 14 29 272 323 346 341 38 127 170 164 157 169 175 173 181 176 150 121 93 116 130 92 214 176 208 228 102 23 207 234 266 262 225 233 260 273 275 269 259 250 124 155 208 205 164 152 251 295 293 130 110 113 113 111 119 132 154 175 187
348 347 348 348 347 348 346 345 345 343 342 343 345 345 341 343 343 335 330 332 323 277 230 189 212 303 340 345 69 41 331 327 356 4 35 103 130 161 167 162 170 177 172 196 208 168 159 134 167 172 165 198 171 203 208 149 266 221 213 248 263 265 265 267 264 265 269 270 169 163 175 203 230 155 125 260 277 284 122 110 113 122 128 132 134 157 177 192
349 347 350 350 348 348 347 346 345 345 346 349 348 343 340 339 339 336 326 331 321 261 210 191 220 327 354 359 66 62 332 348 5 34 96 139 141 152 165 165 172 181 176 192 198 171 168 175 175 150 156 167 173 197 165 151 204 204 204 256 255 270 284 267 256 262 286 283 174 158 138 172 226 111 215 253 222 191 126 114 116 128 149 144 136 160 178 198
350 349 351 351 350 349 347 347 348 350 354 356 352 343 339 337 338 340 325 323 314 251 199 210 224 323 352 45 84 81 334 349 8 51 110 150 149 155 164 169 180 188 176 174 209 204 178 157 139 98 133 182 170 211 227 181 184 195 206 290 285 295 291 252 257 271 298 252 183 131 98 153 290 309 218 206 171 168 144 141 146 143 166 152 145 169 184 200
351 350 352 352 350 348 348 350 353 357 1 359 353 344 337 336 341 341 327 322 316 218 198 213 226 289 343 51 141 239 338 346 10 54 117 155 157 164 173 180 191 195 186 180 218 217 202 152 122 97 255 167 134 299 246 193 173 221 136 289 303 343 322 265 262 265 164 224 166 122 86 285 235 253 239 175 148 146 139 157 173 166 181 165 166 185 190 200
352 352 354 352 351 350 351 354 358 2 3 1 353 343 336 337 353 350 338 331 316 197 188 203 245 290 23 18 229 329 344 341 11 57 115 159 158 157 177 194 205 207 207 215 234 222 225 215 159 185 231 150 245 264 107 56 6 292 62 140 308 358 342 291 302 112 140 196 149 132 168 256 237 253 251 159 144 138 148 182 188 178 184 180 187 195 197 204
353 355 355 353 353 353 354 356 1 3 4 2 353 344 337 346 8 0 350 338 314 179 170 193 288 343 45 280 271 355 342 330 3 40 104 151 146 145 173 186 204 216 222 236 246 239 239 220 180 206 228 170 256 282 351 8 10 311 326 55 355 355 289 294 296 134 146 212 142 140 225 250 253 262 226 169 160 157 170 191 189 187 189 188 195 200 208 211
355 357 356 355 355 355 356 358 1 5 7 5 2 354 345 355 7 14 29 16 49 135 139 108 21 32 29 310 316 0 346 335 5 1 344 181 151 143 186 198 213 226 235 249 251 241 239 194 152 148 259 274 37 20 336 346 5 15 334 305 338 121 272 299 288 170 174 306 110 137 212 260 265 254 200 172 172 170 178 188 188 194 191 190 199 201 215 221
355 358 358 357 357 357 357 359 3 8 10 11 11 359 339 354 22 36 53 72 106 127 100 64 47 61 74 357 340 10 14 345 341 339 299 241 208 139 171 209 218 244 251 258 262 252 238 139 95 75 257 12 56 69 20 5 343 357 71 255 279 300 293 310 316 204 195 3 57 153 191 251 261 231 191 175 178 177 184 191 193 198 193 193 203 204 214 222
356 358 359 358 359 359 359 4 10 13 15 22 33 26 11 38 62 51 66 82 117 144 49 49 59 38 51 349 355 353 339 327 325 311 276 264 248 240 3 17 340 344 290 263 275 257 208 87 41 358 46 40 69 88 30 346 308 314 16 267 262 257 279 306 315 303 92 131 208 250 212 243 263 207 181 185 183 180 189 195 195 193 192 200 205 210 217 220
355 358 359 359 0 360 3 12 19 20 23 41 60 56 52 89 92 71 89 92 121 163 22 319 16 51 322 314 339 294 299 317 324 302 278 276 259 260 306 8 352 351 2 8 13 38 11 8 47 31 12 4 35 87 143 234 210 225 255 18 301 298 295 279 277 294 27 36 200 159 230 258 274 224 191 194 186 185 196 195 194 191 191 202 204 212 217 221
354 356 358 359 1 0 6 19 27 31 34 48 73 70 59 69 78 73 89 66 48 48 6 297 30 93 260 291 301 301 305 314 309 273 255 257 246 272 319 54 17 13 36 29 349 11 37 18 31 10 320 301 254 157 187 210 169 170 187 164 230 288 287 259 257 263 27 345 268 199 231 249 238 225 208 200 189 192 203 191 189 195 194 202 209 217 217 220
351 355 357 359 2 2 8 20 34 46 47 47 66 76 50 32 22 4 340 341 187 152 225 239 135 153 274 287 304 326 331 341 324 248 237 237 175 93 31 31 37 39 53 194 306 344 51 33 331 267 258 262 245 208 197 192 148 144 165 195 214 224 278 273 267 263 160 227 276 220 227 244 212 222 214 191 184 195 207 199 196 200 196 201 208 213 216 220
350 353 356 360 2 4 13 28 48 60 59 54 56 68 69 60 48 329 325 323 273 241 255 247 213 252 269 276 300 337 5 16 3 328 217 186 134 85 342 20 46 19 329 229 285 343 39 39 285 264 249 255 253 209 175 159 150 168 179 228 270 216 257 277 272 278 181 178 274 254 246 261 220 224 212 171 184 203 203 198 198 200 197 202 210 209 212 219
349 352 356 0 2 7 23 45 62 69 63 55 55 71 120 52 5 263 251 334 299 312 302 279 299 290 274 284 303 35 65 26 354 348 133 136 78 353 290 47 65 338 316 20 17 359 26 323 275 285 267 259 276 170 160 164 172 181 145 135 290 252 272 293 290 309 23 172 273 339 313 274 246 233 208 182 196 207 203 201 203 200 195 199 206 206 206 209
348 351 356 2 4 9 37 56 64 69 60 56 56 54 19 356 342 281 133 96 301 318 355 336 359 327 320 8 33 82 67 40 345 337 315 135 65 174 141 53 50 335 344 37 64 36 17 279 282 310 304 292 3 113 155 159 184 183 155 165 276 272 273 286 293 328 359 200 290 335 311 292 312 313 239 210 212 218 204 212 228 218 208 208 208 208 208 205
348 352 356 3 7 12 49 50 50 51 47 62 59 29 5 354 354 77 107 89 315 301 318 339 5 328 328 339 347 34 81 176 305 333 329 122 98 138 127 114 73 16 321 44 105 100 266 261 285 342 10 43 41 31 93 104 338 268 205 185 228 250 214 222 275 322 347 355 347 27 14 321 342 337 256 234 251 286 229 209 229 229 215 214 223 225 218 210
351 353 355 5 12 14 39 39 29 18 12 68 50 6 357 355 359 102 83 72 359 312 323 352 9 352 327 326 334 352 104 40 327 297 295 111 131 102 53 178 77 359 288 292 95 78 291 270 323 14 19 35 45 28 39 90 4 320 241 199 203 220 229 248 295 345 20 359 326 32 29 303 307 263 252 217 207 238 221 206 226 223 207 206 216 223 218 213
353 354 355 3 17 18 9 51 6 357 356 51 7 346 349 350 355 103 70 64 21 322 336 352 2 351 337 335 330 11 70 5 309 344 17 20 7 104 51 301 29 347 273 304 54 66 324 339 40 47 33 35 41 26 359 56 59 349 289 213 191 155 170 251 296 43 46 285 294 46 105 259 313 315 270 246 214 227 223 233 235 218 214 218 214 217 214 207
358 357 355 358 19 24 12 162 347 352 30 339 334 338 344 342 276 87 59 49 13 309 322 318 326 354 337 324 336 56 70 295 314 23 33 17 343 51 44 329 1 329 273 67 31 303 302 351 29 41 42 41 35 10 326 21 98 267 299 51 132 136 198 227 139 105 238 260 316 17 104 187 305 293 283 256 190 237 250 253 255 229 223 226 219 214 210 206
3 359 354 353 8 15 24 343 335 343 256 312 325 335 339 337 169 78 79 70 338 302 315 297 313 334 322 338 22 68 221 289 20 344 355 29 13 27 56 15 140 308 321 90 67 270 274 12 21 38 43 38 25 326 305 358 105 255 295 303 194 208 210 186 119 144 306 341 312 319 51 112 272 280 312 46 117 219 247 244 244 232 225 225 222 218 210 204
7 359 351 345 344 352 351 328 322 313 308 317 329 333 333 9 120 56 76 92 314 311 183 311 333 329 330 5 24 25 346 13 65 299 329 27 15 26 84 64 137 115 4 90 124 271 304 355 27 78 51 4 327 293 305 45 7 269 314 353 83 54 62 80 107 131 34 12 250 269 285 156 271 291 348 40 83 221 248 249 242 235 231 227 223 218 210 202
6 356 349 338 330 328 322 320 316 317 323 324 328 328 336 100 70 53 55 82 296 292 260 4 347 332 5 24 4 354 19 14 347 348 1 18 5 18 67 32 92 98 5 42 80 309 319 309 3 77 35 300 281 282 242 86 304 291 5 14 17 21 29 43 51 100 73 284 246 249 220 140 263 288 253 124 327 249 251 272 264 248 241 235 229 219 206 200
3 359 349 329 324 318 313 321 322 317 319 319 322 330 38 62 50 85 89 248 272 316 347 3 335 0 34 51 15 346 11 355 343 23 22 3 15 19 24 18 39 51 11 13 8 339 360 16 359 352 347 342 326 309 280 209 332 17 62 32 16 355 2 21 0 53 135 260 265 267 277 104 162 280 329 304 316 330 300 297 298 280 255 239 232 224 208 199
1 355 337 319 316 307 295 304 310 312 314 315 326 6 82 41 29 97 296 300 326 324 342 325 315 5 29 51 26 351 348 350 354 43 42 21 41 36 36 35 2 8 6 350 344 347 13 38 339 314 350 9 3 342 343 345 6 27 62 58 47 358 346 346 311 264 200 248 285 311 351 71 197 247 357 339 342 359 343 318 315 307 292 268 242 227 208 195
353 338 326 314 309 303 300 305 308 311 313 315 358 62 77 71 46 264 296 328 310 290 315 330 321 2 33 44 11 342 355 4 348 22 54 53 54 35 24 27 34 45 357 310 7 3 338 321 352 358 348 355 23 34 354 333 5 17 36 86 90 87 34 304 278 308 266 265 300 321 322 299 248 1 5 344 328 341 346 339 330 323 318 303 274 228 196 193
344 330 321 310 306 307 312 315 317 320 323 355 79 60 65 88 232 278 323 273 251 318 346 7 340 6 37 53 341 328 15 10 350 17 31 33 39 16 358 4 17 54 89 41 49 36 13 324 348 7 320 332 21 51 305 269 12 1 258 113 115 140 141 217 242 280 310 299 307 321 315 265 182 357 355 342 326 350 5 359 1 2 349 334 323 290 204 202
343 336 329 325 330 335 329 327 334 335 342 74 71 57 85 136 244 234 250 257 275 331 326 11 38 34 20 354 325 350 20 336 3 40 43 40 50 2 340 344 359 26 72 42 355 54 52 289 290 295 279 352 8 327 313 4 9 308 352 73 91 170 153 140 184 197 279 322 308 303 272 226 162 226 354 8 5 9 13 7 11 12 3 4 3 349 324 274
343 342 354 9 12 355 342 338 342 346 42 93 65 60 116 189 201 159 205 239 17 310 329 10 32 46 4 328 334 347 355 14 24 42 36 46 66 7 338 301 343 18 69 81 356 17 29 279 288 319 338 13 14 322 358 21 315 302 39 69 254 163 122 116 276 275 86 115 283 278 235 330 352 299 354 12 12 7 9 9 10 7 6 12 8 358 350 334
358 5 16 13 6 353 346 339 342 7 80 89 79 102 192 207 172 176 215 199 92 81 81 46 16 42 2 339 330 333 350 14 19 38 30 23 37 354 334 302 336 13 16 146 123 35 79 275 297 355 355 346 357 12 15 13 42 73 45 215 254 28 79 107 91 21 52 174 264 280 191 342 349 251 339 2 5 357 357 0 1 2 9 9 2 2 360 352
18 28 26 11 2 354 348 340 347 30 76 69 76 113 163 160 174 197 187 112 100 69 76 95 56 85 144 73 315 319 349 3 358 37 51 21 27 5 347 311 329 353 335 9 78 31 69 307 291 330 355 330 355 41 9 352 28 81 44 204 109 61 47 55 91 171 188 194 269 305 229 59 351 261 327 345 347 343 342 346 351 356 3 359 351 356 359 1
34 37 32 359 348 341 341 348 15 54 67 62 80 115 138 124 307 266 147 72 88 75 73 138 112 73 114 110 268 304 350 21 3 44 66 37 84 95 45 332 314 342 342 45 88 311 61 43 284 299 341 337 4 34 17 339 350 29 21 13 56 127 153 137 146 157 137 192 269 326 339 347 235 264 314 324 328 331 329 333 337 336 340 343 342 347 352 359
41 56 243 339 344 342 20 47 51 56 61 86 150 176 91 125 308 333 15 60 96 85 103 166 107 81 106 35 284 290 353 36 38 59 69 44 104 356 23 33 307 326 345 45 75 6 47 59 278 301 342 21 39 4 354 342 346 7 22 12 356 343 44 75 2 74 107 169 182 105 306 276 266 305 313 306 314 315 307 314 318 318 322 325 333 341 344 349
52 66 281 340 353 70 91 59 52 60 83 92 134 139 66 101 56 348 354 49 95 101 128 138 121 117 139 38 10 280 348 31 38 73 62 23 109 298 350 41 344 317 356 29 39 41 53 78 273 315 348 32 147 240 262 311 31 52 43 40 8 334 14 45 344 331 64 159 182 150 266 271 259 285 293 298 315 315 306 306 313 319 321 318 324 330 326 333
65 83 319 353 12 136 86 49 7 59 93 106 103 131 55 70 83 355 350 30 63 62 68 87 105 113 139 154 133 266 88 37 17 80 113 251 165 208 249 19 356 321 106 32 320 251 142 106 65 313 293 263 218 210 285 301 22 80 72 97 108 58 74 95 283 305 351 335 296 88 315 273 268 300 320 328 329 325 324 326 329 325 317 315 322 327 326 327
77 165 334 5 20 146 71 45 315 19 40 242 56 44 7 65 80 6 18 29 35 61 47 41 103 105 117 173 113 78 92 70 42 96 173 273 243 235 237 17 5 3 92 37 315 274 102 74 35 313 298 302 275 226 302 312 19 45 20 17 39 21 193 188 208 249 276 307 334 27 303 269 273 308 343 345 335 336 342 343 340 330 320 321 326 328 330 328
108 211 311 5 13 152 93 89 169 45 344 318 38 11 354 51 71 35 47 21 15 95 80 24 316 104 95 109 91 80 91 97 91 12 346 242 271 272 271 357 8 9 123 214 298 53 29 28 58 26 343 344 6 352 328 336 15 35 329 326 344 336 220 198 202 276 255 236 233 232 262 265 267 310 354 358 352 351 349 345 342 334 329 331 332 333 332 329
45 188 275 356 25 74 115 163 149 127 118 46 55 10 359 46 55 58 84 53 30 104 116 70 347 64 51 57 53 16 23 86 114 325 349 263 276 294 313 337 351 278 220 145 42 59 83 84 106 91 27 342 337 322 312 326 340 341 328 338 352 352 325 296 295 268 355 341 292 206 274 302 321 346 357 357 355 351 346 343 343 341 336 334 335 338 337 338
62 94 290 338 17 54 84 171 104 114 147 110 68 4 45 100 318 13 80 77 51 73 75 49 34 48 39 43 46 4 350 34 66 57 10 296 280 282 315 334 344 269 221 65 44 62 97 62 118 133 154 208 225 255 271 27 10 338 338 346 354 348 340 357 10 334 338 324 324 52 337 333 343 349 349 349 349 344 340 343 344 341 338 336 339 340 339 342
77 131 115 348 358 33 29 17 55 97 144 127 110 321 79 114 310 358 54 77 80 74 68 34 33 48 29 36 58 1 323 352 17 40 350 294 272 287 317 339 358 331 351 55 25 65 92 18 13 142 201 230 237 263 287 75 99 44 356 356 353 350 7 39 32 352 338 314 339 359 350 347 349 346 341 339 340 335 333 338 338 332 330 334 338 341 343 347
64 156 160 115 157 103 61 35 75 94 88 94 117 137 55 53 54 57 57 46 37 60 86 28 8 21 69 115 109 30 336 359 355 329 345 340 320 334 344 353 355 350 20 35 351 79 107 1 324 116 290 302 313 277 221 110 102 83 35 17 5 3 19 40 23 355 353 7 356 344 342 338 336 340 335 330 329 326 321 321 323 324 332 339 343 345 347 347
60 109 275 8 101 167 160 41 95 97 78 64 82 107 134 114 106 210 251 42 11 359 81 92 311 319 12 123 127 120 264 85 348 294 236 2 345 357 358 343 336 359 46 51 355 79 113 318 307 85 348 351 353 321 144 119 107 64 34 29 27 15 12 30 13 347 349 17 358 342 333 311 299 326 328 319 317 315 311 315 327 336 341 341 343 346 346 344
61 117 261 39 64 77 14 25 81 94 57 35 64 106 132 131 142 221 105 95 74 322 42 111 212 253 38 113 118 99 219 174 174 258 202 138 330 282 211 253 251 343 16 47 1 8 58 337 262 92 37 352 343 346 74 132 117 83 51 29 21 14 17 37 18 352 359 358 338 338 330 299 289 325 328 317 317 324 326 330 337 340 337 337 342 344 343 341
66 144 139 107 76 354 355 25 72 100 95 42 127 154 133 172 176 147 78 150 159 197 197 156 180 179 41 36 23 285 247 187 186 224 202 182 245 214 199 227 202 325 350 23 11 1 42 34 17 63 58 331 330 355 1 171 66 63 48 24 10 4 7 359 327 2 16 332 324 334 337 310 308 326 329 322 326 331 328 328 332 332 330 334 337 339 339 337
52 27 73 105 94 343 27 60 48 97 181 219 172 165 182 215 191 119 80 303 208 178 180 157 150 135 36 340 288 258 235 202 204 229 210 198 233 230 252 133 135 262 306 27 20 356 85 94 46 58 75 287 318 356 354 345 20 16 347 11 29 322 330 330 318 282 239 184 358 323 303 292 302 320 331 330 330 328 322 320 322 318 318 321 323 330 335 332
Height
794 793 791 790 789 787 786 785 783 782 781 779 778 777 775 774 773 773 772 771 771 771 771 771 771 771 770 770 769 769 768 767 766 766 765 760 759 761 762 763 764 765 766 766 767 768 770 771 772 772 773 774 777 777 777 777 778 782 791 800 802 803 799 790 787 784 781 778 777 778 776 777 779 777 774 773 777 779 780 780 780 778 777 778 778 779 779 780
794 793 791 790 788 787 786 785 783 782 781 779 778 777 775 774 773 773 772 771 771 771 771 771 771 770 770 770 769 768 767 766 765 764 761 758 759 761 762 763 764 765 766 767 768 769 770 773 773 773 775 777 780 778 779 779 778 784 794 800 799 796 790 782 779 777 777 777 776 777 777 777 778 777 775 777 785 783 781 783 782 780 779 779 779 779 780 781
794 792 791 789 788 787 785 784 783 781 780 779 777 776 775 774 773 773 772 771 771 771 771 770 771 770 770 770 769 768 767 766 764 761 758 758 760 761 762 764 764 766 767 767 768 769 770 772 772 774 777 779 781 780 780 780 780 784 791 797 793 786 783 778 777 775 774 775 775 777 777 778 779 776 776 780 787 786 783 783 783 782 780 780 780 780 780 781
793 792 791 789 787 786 785 783 782 781 779 778 777 776 775 774 773 772 772 771 771 771 770 770 770 770 770 769 769 768 766 765 762 759 758 759 760 761 762 764 765 766 767 768 768 770 770 771 772 774 778 781 782 780 781 781 782 785 787 791 786 782 783 775 774 773 773 775 776 777 776 778 779 777 778 781 787 790 786 779 776 777 777 779 780 780 781 781
792 791 790 788 787 786 784 783 781 780 779 778 776 775 774 774 773 772 771 771 771 771 770 770 770 770 770 769 769 767 767 769 763 757 758 759 760 761 763 764 765 766 767 768 769 770 771 771 772 775 778 781 782 781 782 780 780 784 784 783 780 782 782 772 771 772 773 775 775 778 776 775 778 779 779 778 782 784 778 774 772 773 774 777 778 780 781 783
792 790 789 788 786 785 784 782 781 779 778 777 776 775 774 773 773 772 771 771 770 770 770 770 770 770 770 769 769 766 768 770 762 757 759 759 759 761 762 764 765 766 768 769 769 770 771 772 774 777 780 781 783 782 781 780 780 784 783 779 779 780 778 771 770 770 771 774 775 777 774 774 780 781 780 777 777 775 771 771 773 773 775 776 778 781 782 784
791 790 788 787 786 784 783 782 780 779 778 776 775 774 774 773 772 772 771 771 770 770 770 770 770 770 769 769 768 767 768 765 759 758 759 758 759 760 762 764 765 766 768 769 770 771 772 773 775 778 780 781 783 781 780 780 779 784 783 779 777 777 775 770 770 770 770 772 772 774 774 775 779 779 780 778 776 775 771 771 773 774 776 778 781 783 784 785
791 789 788 786 785 784 782 781 780 778 777 776 775 774 773 772 772 771 771 770 770 770 770 770 770 769 769 768 768 768 767 762 758 758 758 758 759 759 762 764 765 767 768 769 769 770 771 773 775 778 781 782 782 781 779 780 781 783 782 777 775 774 772 770 771 770 768 769 769 773 774 774 776 776 779 779 777 775 773 772 774 776 778 781 783 784 785 786
790 789 787 786 784 783 782 780 779 778 776 775 774 773 772 772 771 771 770 770 770 770 770 770 770 769 769 769 768 768 764 760 758 758 757 758 758 760 762 763 765 767 767 769 769 770 771 774 775 776 779 781 781 780 778 781 782 779 777 776 774 772 770 770 770 767 767 768 768 771 774 774 775 777 779 779 778 776 775 774 776 778 780 783 784 785 786 786
790 788 786 785 784 783 781 780 778 777 776 774 774 773 772 771 771 771 770 770 769 769 770 770 769 769 769 768 768 768 762 759 759 758 758 759 759 761 762 763 765 766 767 768 769 769 770 772 773 773 776 779 780 780 778 779 779 775 775 774 772 771 770 770 768 766 767 768 767 770 774 776 777 778 778 777 777 777 776 777 779 780 782 784 784 785 786 787
789 787 786 785 783 782 780 779 777 776 775 774 773 772 771 771 771 770 770 769 769 769 769 769 769 769 769 768 769 767 760 759 759 758 759 760 760 761 762 763 764 765 766 768 768 768 769 771 772 773 776 777 778 778 776 774 774 773 774 774 772 771 770 770 768 767 768 767 765 769 776 780 780 777 774 773 776 777 777 779 781 782 784 784 785 786 786 787
789 787 786 784 783 781 780 778 777 776 775 774 773 772 771 771 771 770 770 769 769 769 769 769 769 769 769 769 769 764 759 759 759 758 760 760 762 762 763 764 764 765 766 767 767 768 770 771 771 775 776 775 777 778 774 772 773 773 774 775 772 769 768 767 768 769 769 767 764 767 781 786 780 774 771 772 776 778 780 782 783 783 784 785 785 786 786 787
789 787 785 784 782 781 779 778 776 775 774 773 773 771 771 770 770 770 769 769 769 769 769 769 769 769 769 768 764 760 759 759 759 759 760 761 762 763 763 765 765 766 766 766 767 769 771 771 772 774 774 775 777 775 772 772 773 773 775 777 776 775 772 767 767 768 768 769 763 766 784 787 778 772 772 775 777 778 782 783 784 784 784 785 785 786 786 787
788 786 785 783 781 780 778 777 775 774 773 773 772 771 771 770 770 770 769 769 769 769 769 769 770 769 770 766 760 759 759 758 759 760 760 761 762 763 764 764 765 766 766 766 767 769 770 770 771 772 772 774 773 770 772 775 775 776 777 781 786 785 776 767 767 767 766 768 763 767 783 781 773 772 773 776 776 777 781 783 784 784 784 784 784 785 786 786
788 786 784 783 781 779 778 776 775 774 773 772 771 771 770 770 770 769 769 769 769 770 769 770 770 769 769 765 760 760 759 759 760 760 761 762 763 763 764 764 765 765 765 766 767 768 769 770 771 773 773 772 771 774 779 779 779 781 783 786 791 790 779 769 768 768 766 767 765 769 782 781 772 771 773 775 776 777 780 782 784 783 783 784 784 785 786 786
787 786 784 782 780 778 777 775 774 773 772 771 771 770 770 770 770 769 770 769 769 770 770 770 770 770 771 766 761 760 760 760 760 760 761 761 763 764 764 765 766 766 766 766 766 767 767 769 771 774 773 773 777 780 784 787 785 787 789 787 788 787 784 775 767 767 767 767 768 768 777 779 771 769 773 776 776 779 781 782 783 783 783 784 784 785 785 786
787 785 783 782 780 778 777 775 774 773 772 771 770 770 769 770 770 770 770 769 770 770 770 771 770 770 769 763 762 763 762 761 760 761 761 761 763 763 765 766 766 766 765 764 765 766 767 770 774 775 776 780 783 783 790 799 793 790 791 789 789 789 787 781 771 767 767 768 770 770 773 772 766 768 775 775 776 779 780 781 782 783 784 783 784 785 785 786
786 785 783 781 780 778 776 775 774 773 772 771 770 770 770 770 770 771 771 770 770 770 771 770 769 775 774 764 765 766 762 761 761 760 761 761 762 763 764 765 766 765 766 767 767 768 769 772 775 778 781 784 784 786 795 800 791 788 789 788 790 790 788 786 777 768 767 769 771 775 775 771 769 773 775 773 774 777 777 778 780 781 783 783 784 784 785 787
786 785 783 781 779 778 777 775 774 773 772 771 771 771 770 770 770 771 771 771 771 772 774 772 770 779 779 768 764 764 761 761 761 761 761 761 762 763 764 765 766 767 770 773 772 771 772 775 780 784 786 785 783 785 788 788 785 787 789 789 790 790 787 784 777 768 768 771 772 774 774 771 771 774 776 774 775 778 778 778 780 781 782 783 784 784 786 787
785 784 783 781 780 778 777 776 775 774 773 772 771 770 772 775 775 775 773 771 772 772 773 772 771 774 773 767 764 763 761 761 761 761 761 762 762 764 765 766 769 770 774 777 776 775 775 781 786 787 786 783 781 782 782 782 785 787 788 788 790 793 788 779 774 767 767 771 769 767 769 771 771 771 774 776 777 780 780 779 780 780 782 782 783 784 786 786
785 784 782 781 780 778 777 776 776 775 774 774 772 773 777 780 782 782 778 773 771 771 771 771 771 771 768 766 764 763 763 763 762 761 762 762 762 766 769 770 773 776 778 780 779 777 779 787 788 782 781 779 778 782 784 785 786 785 787 788 790 793 786 775 771 767 767 771 768 766 768 771 772 770 773 777 778 777 774 776 777 777 780 781 782 784 784 784
784 783 782 781 780 779 778 777 776 776 775 775 774 776 779 780 781 781 780 780 774 770 771 769 769 769 765 764 764 764 766 768 766 763 762 763 764 769 772 773 776 780 779 780 782 783 786 789 783 777 778 778 779 783 784 784 785 786 789 791 789 789 785 775 769 767 769 771 768 767 769 769 772 773 775 775 771 769 768 771 772 773 777 778 779 781 782 783
784 783 782 781 779 779 778 778 777 776 776 776 776 778 779 779 779 777 779 784 779 772 771 770 770 770 766 765 765 764 768 771 771 766 762 763 767 770 772 774 778 780 779 780 784 790 793 787 778 777 778 777 779 782 783 784 786 787 789 790 788 785 787 781 770 766 769 771 769 769 769 772 778 778 776 774 769 768 770 771 773 773 775 776 776 778 780 782
783 782 782 780 779 779 778 778 777 777 777 777 778 779 779 778 778 778 779 785 785 775 771 771 770 770 769 767 765 767 770 771 771 767 763 765 769 771 772 775 779 780 781 783 786 790 790 782 776 776 777 776 777 780 782 783 784 784 784 786 785 780 782 781 774 770 770 772 773 770 769 773 781 782 777 776 775 773 772 773 774 773 774 776 777 778 779 781
783 782 782 780 780 779 778 778 778 778 778 778 778 779 779 778 777 777 779 787 790 779 772 771 771 771 768 766 766 767 769 770 770 767 763 765 768 771 774 775 779 783 783 784 787 787 784 779 777 777 776 776 778 782 784 784 784 783 779 779 777 774 775 777 777 776 775 777 775 774 777 779 780 782 780 779 779 776 774 775 773 774 775 776 777 777 778 780
782 782 781 780 779 779 778 778 778 778 778 778 779 778 778 778 776 776 780 791 797 788 780 776 775 774 769 769 767 766 773 775 769 766 765 765 766 768 775 777 779 782 781 781 785 786 783 779 779 781 780 779 782 784 785 786 787 785 780 778 776 775 778 777 776 778 780 781 778 776 784 785 778 775 778 782 781 778 776 776 773 775 776 776 776 776 777 778
782 781 781 780 779 778 778 778 779 779 778 779 778 778 777 776 775 775 782 801 807 795 788 781 778 776 771 771 768 770 784 781 769 767 766 767 766 766 775 781 781 782 780 782 789 789 784 781 783 784 783 784 787 789 786 786 789 786 780 780 779 777 779 777 775 776 779 779 778 777 780 786 780 776 782 785 783 784 781 778 776 775 775 774 774 775 775 776
782 781 781 780 779 779 778 779 779 778 779 779 777 777 777 775 776 776 789 815 813 794 790 785 775 773 772 771 769 774 782 778 776 776 767 767 769 768 776 781 782 785 782 785 794 793 784 785 787 786 788 790 790 791 787 785 786 782 779 781 781 779 778 778 777 777 780 782 783 779 779 787 785 777 782 785 781 784 782 776 775 773 772 772 772 772 772 773
782 781 781 780 780 779 779 779 779 778 778 778 776 777 775 774 776 780 797 818 810 793 792 786 776 777 776 774 775 778 777 776 782 780 769 770 771 770 778 781 780 785 784 785 792 792 787 786 786 787 793 794 789 788 786 786 787 781 779 781 781 782 781 781 782 779 784 791 787 780 779 787 786 775 777 782 778 779 777 774 774 771 770 769 768 769 770 772
781 781 781 780 780 779 779 778 778 778 778 777 777 775 774 776 781 795 813 818 809 797 791 786 784 787 784 781 783 784 781 782 783 779 776 779 776 773 778 780 780 785 788 789 790 791 789 784 783 788 794 792 787 787 785 786 786 781 781 780 778 783 784 787 788 783 790 796 788 783 782 786 789 781 777 779 777 774 772 770 770 769 768 767 765 766 767 769
781 781 780 780 780 779 779 778 777 778 777 776 777 774 775 783 793 812 822 814 806 801 794 793 793 791 791 793 796 792 787 786 785 784 786 787 786 784 785 787 788 790 793 795 794 793 791 789 789 790 791 789 787 787 786 786 786 784 785 785 784 787 786 788 791 790 798 799 788 788 789 787 789 787 781 779 777 776 774 771 768 766 766 764 762 762 764 766
781 781 780 780 780 779 778 778 776 777 776 775 776 774 780 794 809 822 820 808 808 807 801 802 799 795 796 798 802 801 795 794 791 792 795 797 799 798 799 803 803 802 805 807 803 799 796 797 797 792 789 791 791 791 790 788 788 788 789 791 798 805 802 799 799 799 801 798 791 792 792 788 788 789 790 788 782 780 778 776 774 770 766 764 761 761 763 765
782 781 780 779 779 779 778 777 776 776 775 774 775 778 787 805 821 826 819 811 812 808 802 804 803 801 800 800 805 805 801 801 798 796 798 800 803 805 805 806 805 807 812 813 812 809 804 802 800 796 794 794 794 799 801 797 795 796 796 796 805 817 822 818 813 810 806 799 794 794 794 790 788 791 796 794 788 785 781 778 777 774 770 766 762 761 762 764
781 780 780 779 779 778 777 777 776 775 774 773 776 783 796 815 824 821 816 813 810 805 803 807 805 802 804 807 810 807 804 804 802 800 801 803 808 811 809 807 804 806 810 813 816 818 816 812 807 805 803 799 797 801 804 802 801 802 801 800 804 815 822 822 821 820 817 808 799 795 796 794 792 796 797 793 789 786 782 779 776 774 772 768 764 763 764 764
781 780 780 779 779 778 777 777 775 774 773 773 782 794 808 823 825 819 815 811 808 806 805 807 807 806 810 812 810 807 806 806 804 804 808 813 818 819 817 812 808 808 810 815 818 819 821 818 810 806 803 801 801 799 799 801 804 805 804 804 808 810 812 819 824 825 825 822 811 801 798 795 794 794 793 791 789 785 784 781 778 777 775 772 771 770 769 769
781 780 780 780 779 779 778 777 776 774 773 775 790 808 816 818 818 816 812 807 807 808 806 808 811 814 817 816 812 809 806 805 807 808 812 819 822 822 820 814 811 810 812 816 820 822 823 818 809 806 802 800 803 801 798 802 805 805 806 808 810 808 808 816 823 826 828 829 821 809 801 797 797 795 793 793 793 790 790 788 786 785 782 779 779 777 775 773
781 780 781 780 780 779 778 778 776 775 774 780 798 813 815 812 810 809 807 805 808 809 808 814 819 820 824 822 818 814 809 807 809 811 816 822 822 822 821 816 811 812 812 814 818 822 824 819 811 810 807 801 802 801 799 801 804 805 809 810 810 810 810 814 820 825 828 827 821 813 808 806 806 803 800 800 801 799 796 794 793 790 787 786 785 783 780 776
781 781 781 781 781 780 779 778 777 775 777 788 804 813 812 809 807 805 805 805 806 807 810 818 821 822 826 825 822 819 815 813 815 817 819 824 824 823 822 819 813 812 811 810 814 819 823 822 814 811 811 807 802 804 806 804 802 805 809 809 811 815 816 817 821 823 825 826 821 814 813 816 816 814 811 808 807 805 802 799 797 794 792 792 789 786 784 781
781 783 784 783 781 780 780 779 778 778 784 798 811 813 809 808 806 805 806 806 806 808 813 820 821 822 825 825 824 821 819 818 820 822 823 826 827 821 821 821 816 813 811 808 814 820 822 825 820 811 810 812 810 814 821 818 809 806 808 809 811 815 817 820 821 821 822 825 825 817 814 817 819 818 816 813 810 808 806 803 800 797 796 794 792 789 787 784
782 785 786 783 780 780 780 778 780 785 794 807 813 810 807 807 804 805 806 806 807 810 814 819 820 821 824 825 824 823 821 821 821 824 826 827 827 821 819 821 818 816 814 810 815 820 821 827 827 815 811 817 822 825 827 825 819 815 816 819 820 818 817 820 821 822 822 824 829 826 818 816 817 815 814 813 811 810 808 805 802 799 796 794 793 791 788 786
784 788 788 782 780 781 779 782 791 798 803 809 810 807 806 805 803 804 805 804 807 809 811 816 818 821 823 824 825 824 822 821 822 825 827 826 827 825 820 819 819 818 815 813 816 820 821 826 828 823 820 824 829 829 825 822 822 822 823 826 830 828 825 824 824 824 823 823 827 829 822 817 816 814 813 812 811 809 807 805 803 799 796 793 792 790 789 787
787 792 789 782 781 781 781 791 803 807 806 806 807 805 804 804 804 806 805 804 807 808 810 814 818 822 823 822 824 825 823 823 825 827 827 826 826 824 820 818 818 817 816 817 819 820 821 825 827 826 826 826 827 828 825 823 821 821 824 827 831 832 831 830 829 827 827 825 825 827 825 820 816 813 813 813 811 810 808 805 803 799 796 794 791 788 786 786
789 791 786 782 782 781 785 799 807 807 805 805 805 805 804 805 806 807 807 808 810 811 812 816 818 820 822 822 823 824 825 826 828 827 827 827 824 819 818 818 817 816 817 818 820 819 821 828 829 826 825 824 825 827 825 823 822 823 826 827 829 831 830 830 830 829 829 827 826 828 826 820 817 815 814 814 813 810 807 805 803 800 796 793 791 788 785 784
793 792 787 784 782 780 789 802 807 807 808 806 805 806 805 806 808 808 810 812 812 813 815 819 820 819 820 823 823 824 826 827 830 829 827 828 824 817 816 817 817 818 817 817 819 818 822 830 832 832 832 829 828 830 828 824 825 827 829 830 830 830 830 829 829 828 828 827 827 828 824 819 816 814 813 813 812 810 808 806 804 802 798 794 791 788 786 784
794 793 791 787 782 784 794 803 803 806 810 808 808 811 810 809 810 810 812 815 816 816 817 820 821 819 821 824 824 825 825 826 829 829 828 828 824 817 816 817 818 818 815 815 816 816 822 830 831 833 839 839 836 835 832 830 830 831 833 833 833 833 831 829 828 827 827 828 828 828 826 821 816 813 812 813 812 811 809 806 804 802 799 796 792 789 786 784
794 796 796 791 787 791 800 805 802 803 807 809 811 815 815 813 813 811 811 815 817 817 818 820 821 821 822 824 825 828 827 827 829 829 828 829 824 820 818 817 817 817 814 814 816 818 825 830 830 830 834 836 834 831 831 833 833 835 837 837 837 836 831 828 828 829 830 830 829 829 829 826 821 817 816 816 815 813 811 807 805 803 801 797 794 791 788 786
796 799 801 799 796 797 801 805 803 803 806 809 811 815 815 814 815 814 812 815 818 818 820 823 823 822 824 826 827 829 829 828 829 828 828 829 826 822 819 817 818 816 813 815 818 820 824 828 831 832 830 829 831 832 833 833 834 838 840 840 840 836 832 831 832 833 833 831 829 829 829 828 826 822 820 819 817 814 812 810 807 805 803 799 796 793 790 787
798 802 805 803 802 803 803 805 805 805 808 811 813 817 816 815 817 816 815 817 818 819 820 824 825 825 826 828 829 829 830 830 830 829 828 829 827 824 820 818 819 817 816 819 820 822 824 828 833 834 831 831 834 835 834 833 835 839 840 840 841 838 835 835 835 835 834 832 831 831 830 830 826 823 822 820 818 816 812 810 808 805 803 800 797 795 792 789
800 802 805 804 804 806 808 810 809 807 808 810 812 815 816 816 817 819 818 818 819 821 822 824 826 826 828 829 828 829 831 831 831 831 829 829 829 827 824 822 821 820 819 820 824 826 826 829 835 836 833 834 837 836 834 833 835 839 840 840 840 838 837 836 835 835 833 833 835 834 832 830 825 823 823 820 818 816 812 808 807 804 803 800 798 797 795 793
802 802 805 804 805 809 811 811 809 806 809 813 812 814 817 816 817 819 820 819 820 822 823 823 825 827 829 829 827 826 827 826 827 828 827 828 829 828 827 826 824 822 820 822 827 827 826 831 838 837 832 834 839 837 833 833 834 836 838 839 839 837 837 836 835 835 835 836 837 836 834 830 824 822 824 821 817 816 812 809 807 805 803 802 799 798 796 794
804 804 805 803 805 811 812 812 811 808 810 813 813 815 817 816 817 818 819 820 820 820 821 822 824 827 829 829 826 823 822 822 823 823 823 824 826 826 825 826 827 825 824 826 827 826 827 833 838 836 830 834 842 839 835 838 839 835 835 837 839 839 838 836 835 836 838 838 837 837 837 832 825 824 825 821 818 817 814 811 809 806 804 802 801 799 796 794
804 805 805 803 806 813 814 813 814 812 811 813 814 815 816 816 817 818 819 820 820 818 819 821 823 826 827 827 824 820 819 820 820 820 822 822 823 824 825 827 828 827 827 828 829 831 832 831 836 841 834 834 845 845 840 841 840 835 834 835 837 839 839 838 835 834 835 835 836 838 837 831 827 827 826 823 820 818 815 812 810 808 805 803 802 799 797 794